Tracking 29892 objects as of 21-Nov-2024
HD Live streaming from Space Station
objects crossing your sky now

COSMOS 1624

Track COSMOS 1624 now!
10-day predictions
COSMOS 1624 is classified as:


NORAD ID: 15482
Int'l Code: 1985-006A
Perigee: 776.2 km
Apogee: 797.1 km
Inclination: 74.0 °
Period: 100.4 minutes
Semi major axis: 7157 km
RCS: 2.2289 m2 (large)
Launch date: January 17, 1985
Source: Commonwealth of Independent States (former USSR) (CIS)
Launch site: PLESETSK MISSILE AND SPACE COMPLEX (PKMTR)
Your satellite tracking list
Your tracking list is empty




NASA's NSSDC Master Catalog

Two Line Element Set (TLE):
1 15482U 85006A   24326.10492214  .00000280  00000-0  11041-3 0  9999
2 15482  74.0402 161.6786 0014656 188.5260 305.7681 14.33663930 82408
Source of the keplerian elements: AFSPC